GPS BIIF-5

Last updated on Sat Aug 15 2026 00:02:48 GMT+0000 (Coordinated Universal Time)

1 39533U 14008A 26226.02020234 -.00000001 00000+0 00000+0 0 9997 2 39533 53.6599 146.9603 0083821 231.6196 127.6320 2.00563519 90844
UTC large
Height (km)
Speed (km/s)
/
Latitude / Longitude
Inclination (degrees)
Orbital Period (minutes)
Azimuth
Elevation
Range (km)
Doppler Factor

Next 0 passes for location: London (51.5072 / 0.1276)

No passes found over London.
GPS BIIF-5